Location: Alma
(38.7220°N, 88.9090°W)
Time: 02:38:56
(UTC-06:00)

Vanguard 2 - Pass Details

Date: 16 November 2019
Orbit: 553 x 2938 km, 32.9° (Epoch: 14 December)

Event Time Altitude Azimuth Distance (km) Brightness Sun altitude
Rises 11:54:07 0° 264° (W) 3,736 11.2 32.4°
Reaches altitude 10° 11:57:21 10° 258° (WSW) 2,470 10.4 32.3°
Maximum altitude 12:02:25 40° 189° (S) 965 10.7 32.3°
Drops below altitude 10° 12:06:17 10° 119° (ESE) 1,870 9.9 32.2°
Sets 12:08:25 0° 111° (ESE) 2,717 10.5 32.1°
